(321212) = 2007 QJ15 = 2007 TY107 = 2008 YV57

Discovered at Kitt Peak on 2008-12-30 by Spacewatch.

Orbit

Orbit type: Main Belt

Note: WebGL enabled browser required.

epoch2022-01-21.0
epoch JD2459600.5
perihelion date2019-10-13.36658
perihelion JD2458769.86658
argument of perihelion (°)75.01911
ascending node (°)328.40413
inclination (°)4.09180
eccentricity0.1939053
perihelion distance (AU)2.5847143
Tisserand w.r.t. Jupiter3.2
ΔV w.r.t. Earth (km/sec)10.2
semimajor axis (AU)3.2064650
mean anomaly (°)142.58488
mean daily motion (°/day)0.17165800
aphelion distance (AU)3.828
period (years)5.74
P-vector [x]0.72500584
P-vector [y]0.60131791
P-vector [z]0.33583226
Q-vector [x]-0.68772737
Q-vector [y]0.65851158
Q-vector [z]0.30560363
absolute magnitude15.94
phase slope0.15
uncertainty0
referenceMPO 697550
observations used341
oppositions14
arc length (days)7523
first opposition used2001
last opposition used2022
residual rms (arc-secs)0.76
perturbers coarse indicatorM-v
perturbers precise indicator003Ek
first observation date used2001-09-19.0
last observation date used2022-04-25.0
computer namePan
JD of orbit computation2456612.491927
perihelion JD uncertainty (days)1.5307E-04
argument of perihelion uncertainty (°)9.7939E-05
ascending node uncertainty (°)9.0928E-05
inclination uncertainty (°)7.5564E-06
eccentricity uncertainty 6.6210E-08
perihelion distance uncertainty (AU)2.1256E-07
Minimum Orbit Intersection Distances (in AU)
for orbit epoch: 2458200.5, reference: MPO377070
Mercury2.2691
Venus1.86941
Earth1.59873
Mars1.11278
Jupiter1.63128
Saturn5.92787
Uranus14.532
Neptune26.461

Observations

353 total observations over interval: 2001 09 19.18058 – 2022 05 22.314875
These data are available for download (format description).

Date (UT) J2000 RA J2000 Dec Magn Location Ref
2001 09 19.18058 22 02 34.17 -10 59 22.6 19.7   704 – Lincoln Laboratory ETS, New Mexico MPS 313542
2001 09 19.19478 22 02 33.58 -10 59 23.8 19.9   704 – Lincoln Laboratory ETS, New Mexico MPS 313542
2001 09 19.22319 22 02 32.61 -10 59 27.6 20.1   704 – Lincoln Laboratory ETS, New Mexico MPS 313542
2001 09 19.23737 22 02 32.06 -10 59 28.6 19.8   704 – Lincoln Laboratory ETS, New Mexico MPS 313542
2002 12 07.35407 05 50 41.39 +29 13 31.2 18.9 R 695 – Kitt Peak MPS 291523
2002 12 07.47111 05 50 34.82 +29 13 28.3   695 – Kitt Peak MPS 291523
2004 03 18.36502 11 01 30.90 +04 09 58.2 21.1 V 691 – Steward Observatory, Kitt Peak-Spacewatch MPS 291523
2004 03 18.39546 11 01 29.60 +04 10 05.0 21.2 V 691 – Steward Observatory, Kitt Peak-Spacewatch MPS 291523
2004 03 18.42616 11 01 28.31 +04 10 12.2 21.2 V 691 – Steward Observatory, Kitt Peak-Spacewatch MPS 291523
2007 08 23.40996 23 50 56.52 +01 17 05.3 20.0 V 691 – Steward Observatory, Kitt Peak-Spacewatch MPS 288669
2007 08 23.42755 23 50 55.95 +01 17 03.6 20.1 V 691 – Steward Observatory, Kitt Peak-Spacewatch MPS 288669
2007 08 23.44515 23 50 55.37 +01 17 02.2 20.0 V 691 – Steward Observatory, Kitt Peak-Spacewatch MPS 288669
2007 09 03.34727 23 44 20.76 +00 54 58.8 19.9 V 703 – Catalina Sky Survey MPS 291523
2007 09 03.35560 23 44 20.43 +00 54 57.4 19.9 V 703 – Catalina Sky Survey MPS 291523
2007 09 03.36393 23 44 20.04 +00 54 55.5 19.6 V 703 – Catalina Sky Survey MPS 291523
2007 09 03.37227 23 44 19.68 +00 54 54.5 19.8 V 703 – Catalina Sky Survey MPS 291523
2007 09 12.29643 23 37 49.65 +00 28 27.3 19.1 R 699 – Lowell Observatory-LONEOS MPS 291523
2007 09 12.31928 23 37 48.42 +00 28 21.2   699 – Lowell Observatory-LONEOS MPS 291523
2007 09 12.34212 23 37 47.44 +00 28 17.3   699 – Lowell Observatory-LONEOS MPS 291523
2007 09 12.36496 23 37 46.36 +00 28 13.6   699 – Lowell Observatory-LONEOS MPS 291523
2007 09 13.23108 23 37 06.84 +00 25 21.9 19.6   704 – Lincoln Laboratory ETS, New Mexico MPS 313542
2007 09 13.25424 23 37 05.71 +00 25 17.1 19.9   704 – Lincoln Laboratory ETS, New Mexico MPS 313542
2007 09 13.26583 23 37 05.19 +00 25 15.4 20.0   704 – Lincoln Laboratory ETS, New Mexico MPS 313542
2007 09 14.30770 23 36 17.00 +00 21 46.0 19.1 R 699 – Lowell Observatory-LONEOS MPS 291523
2007 09 14.33054 23 36 15.89 +00 21 42.3   699 – Lowell Observatory-LONEOS MPS 291523
2007 09 14.35339 23 36 14.84 +00 21 35.9   699 – Lowell Observatory-LONEOS MPS 291523
2007 09 14.37622 23 36 13.76 +00 21 30.3   699 – Lowell Observatory-LONEOS MPS 291523
2007 10 05.14296 23 20 56.91 -00 50 09.9   691 – Steward Observatory, Kitt Peak-Spacewatch MPS 220825
2007 10 05.15647 23 20 56.36 -00 50 12.3   691 – Steward Observatory, Kitt Peak-Spacewatch MPS 220825
2007 10 05.16997 23 20 55.83 -00 50 15.0   691 – Steward Observatory, Kitt Peak-Spacewatch MPS 220825
2007 10 10.26568 23 17 52.98 -01 05 26.5 19.7 V G96 – Mt. Lemmon Survey MPS 291523
2007 10 10.27299 23 17 52.72 -01 05 27.7 19.8 V G96 – Mt. Lemmon Survey MPS 291523
2007 10 10.28038 23 17 52.47 -01 05 28.8 19.8 V G96 – Mt. Lemmon Survey MPS 291523
2007 10 10.28772 23 17 52.11 -01 05 30.9 18.9 V G96 – Mt. Lemmon Survey MPS 291523
2007 10 12.19419 23 16 51.14 -01 10 38.4 20.0   704 – Lincoln Laboratory ETS, New Mexico MPS 313542
2007 10 12.20523 23 16 50.75 -01 10 39.8 20.3   704 – Lincoln Laboratory ETS, New Mexico MPS 313542
2007 10 12.21627 23 16 50.52 -01 10 42.0 20.7   704 – Lincoln Laboratory ETS, New Mexico MPS 313542
2007 10 12.23857 23 16 49.75 -01 10 44.8 20.7   704 – Lincoln Laboratory ETS, New Mexico MPS 313542
2007 11 11.08478 23 11 34.26 -01 36 09.0 20.4 V G96 – Mt. Lemmon Survey MPS 291523
2007 11 11.09139 23 11 34.33 -01 36 08.7 20.3 V G96 – Mt. Lemmon Survey MPS 291523
2007 11 11.09808 23 11 34.36 -01 36 07.7 20.4 V G96 – Mt. Lemmon Survey MPS 291523
2007 11 11.10477 23 11 34.47 -01 36 07.8 20.1 V G96 – Mt. Lemmon Survey MPS 291523
2008 12 05.30556 07 52 01.12 +25 13 26.3 20.6 V G96 – Mt. Lemmon Survey MPS 291523
2008 12 05.31229 07 52 00.98 +25 13 26.5 20.7 V G96 – Mt. Lemmon Survey MPS 291523
2008 12 05.31902 07 52 00.80 +25 13 26.6 20.8 V G96 – Mt. Lemmon Survey MPS 291523
2008 12 05.32577 07 52 00.69 +25 13 27.3 21.1 V G96 – Mt. Lemmon Survey MPS 291523
2008 12 30.23469 07 35 22.57 +25 47 38.2 20.1 V 691 – Steward Observatory, Kitt Peak-Spacewatch MPS 271860
2008 12 30.25282 07 35 21.54 +25 47 39.9 20.2 V 691 – Steward Observatory, Kitt Peak-Spacewatch MPS 271860
2008 12 30.27094 07 35 20.57 +25 47 41.3 20.3 V 691 – Steward Observatory, Kitt Peak-Spacewatch MPS 271860
2008 12 31.24096 07 34 28.46 +25 48 53.0 20.2 V 691 – Steward Observatory, Kitt Peak-Spacewatch MPS 271860
2008 12 31.25934 07 34 27.43 +25 48 54.4 20.1 V 691 – Steward Observatory, Kitt Peak-Spacewatch MPS 271860
2008 12 31.27747 07 34 26.41 +25 48 55.9 19.9 V 691 – Steward Observatory, Kitt Peak-Spacewatch MPS 271860
2009 01 01.24052 07 33 34.18 +25 50 04.9 20.0 V 691 – Steward Observatory, Kitt Peak-Spacewatch MPS 271860
2009 01 01.25892 07 33 33.12 +25 50 06.2 20.0 V 691 – Steward Observatory, Kitt Peak-Spacewatch MPS 271860
2009 01 01.27453 07 33 32.27 +25 50 06.9 19.9 V 691 – Steward Observatory, Kitt Peak-Spacewatch MPS 271860
2009 01 02.31228 07 32 35.30 +25 51 19.2 20.1 V G96 – Mt. Lemmon Survey MPS 271860
2009 01 02.32019 07 32 34.83 +25 51 19.9 20.1 V G96 – Mt. Lemmon Survey MPS 271860
2009 01 02.32815 07 32 34.40 +25 51 20.3 20.2 V G96 – Mt. Lemmon Survey MPS 271860
2009 01 02.33605 07 32 33.93 +25 51 20.9 20.2 V G96 – Mt. Lemmon Survey MPS 271860
2009 01 20.31024 07 16 00.91 +26 02 23.4 19.8 V G96 – Mt. Lemmon Survey MPS 291523
2009 01 20.31599 07 16 00.66 +26 02 23.3 19.7 V G96 – Mt. Lemmon Survey MPS 291523
2009 01 20.32178 07 16 00.33 +26 02 23.6 20.1 V G96 – Mt. Lemmon Survey MPS 291523
2009 01 20.32760 07 15 59.97 +26 02 23.7 19.9 V G96 – Mt. Lemmon Survey MPS 291523
2010 02 15.44992 12 21 32.97 -05 02 20.8 22.4 V 691 – Steward Observatory, Kitt Peak-Spacewatch MPS 313542
2010 02 15.46753 12 21 32.60 -05 02 17.4 21.2 V 691 – Steward Observatory, Kitt Peak-Spacewatch MPS 313542
2010 02 15.47186 12 21 32.43 -05 02 17.1 21.5 V G96 – Mt. Lemmon Survey MPS 313542
2010 02 15.47839 12 21 32.32 -05 02 16.0 21.0 V G96 – Mt. Lemmon Survey MPS 313542
2010 02 15.48490 12 21 32.18 -05 02 16.1 21.2 V G96 – Mt. Lemmon Survey MPS 313542
2010 02 15.48515 12 21 32.14 -05 02 15.8 21.6 V 691 – Steward Observatory, Kitt Peak-Spacewatch MPS 313542
2010 02 15.49140 12 21 31.96 -05 02 15.2 21.5 V G96 – Mt. Lemmon Survey MPS 313542
2010 03 18.19325 12 02 38.33 -03 33 53.8 21.0 V 691 – Steward Observatory, Kitt Peak-Spacewatch MPS 318036
2010 03 18.21093 12 02 37.60 -03 33 50.0 20.7 V 691 – Steward Observatory, Kitt Peak-Spacewatch MPS 318036
2010 03 18.23207 12 02 36.62 -03 33 45.1 20.6 V 691 – Steward Observatory, Kitt Peak-Spacewatch MPS 318036
2011 06 08.20883 14 57 43.16 -22 31 37.3 21.5 V G96 – Mt. Lemmon Survey MPS 384708
2011 06 08.21633 14 57 43.02 -22 31 35.6 21.5 V G96 – Mt. Lemmon Survey MPS 384708
2011 06 08.22375 14 57 42.69 -22 31 34.2 21.0 V G96 – Mt. Lemmon Survey MPS 384708
2011 06 08.23125 14 57 42.40 -22 31 32.4 21.8 V G96 – Mt. Lemmon Survey MPS 384708
2013 09 08.24903 01 31 57.46 +14 02 56.6 19.6 r I41 – Palomar Mountain--ZTF MPS 477604
2013 09 08.28559 01 31 56.81 +14 02 58.3 19.9 r I41 – Palomar Mountain--ZTF MPS 477604
2013 09 08.32159 01 31 56.15 +14 03 00.1 19.6 r I41 – Palomar Mountain--ZTF MPS 477604
2013 09 13.32852 01 30 13.25 +14 05 07.9 19.8 r I41 – Palomar Mountain--ZTF MPS 477604
2013 09 13.37074 01 30 12.17 +14 05 08.1 19.7 r I41 – Palomar Mountain--ZTF MPS 477604
2013 09 13.40711 01 30 11.24 +14 05 08.3 19.5 r I41 – Palomar Mountain--ZTF MPS 477604
2013 09 14.35975 01 29 47.75 +14 05 07.0 19.9 r I41 – Palomar Mountain--ZTF MPS 477604
2013 09 14.39646 01 29 46.76 +14 05 06.8 19.9 r I41 – Palomar Mountain--ZTF MPS 477604
2013 09 15.55322 01 29 16.384 +14 04 55.47 19.7 w F51 – Pan-STARRS 1, Haleakala MPS 477604
2013 09 15.56695 01 29 15.991 +14 04 55.19 19.8 w F51 – Pan-STARRS 1, Haleakala MPS 477604
2013 09 15.58079 01 29 15.595 +14 04 54.95 19.9 w F51 – Pan-STARRS 1, Haleakala MPS 477604
